Estación Meteorológica de la Universidad de Murcia
Estación Meteorológica de la Universidad de Murcia
Universidad de Murcia
 

Humedad relativaHumedad relativa

 

Máxima: 94,1 % a las 07:14:00 del día 19/06/2019
Mínima: 20,7 % a las 20:02:00 del día 19/06/2019

||Humedad máxima últimos meses|| ---- ||Humedad mínima últimos meses||


Humedad máxima

  • 1 - 94,1 % del día 19/06/2019
  • 2 - 88,2 % del día 18/06/2019
  • 3 - 96,1 % del día 17/06/2019
  • 4 - 82,7 % del día 16/06/2019
  • 5 - 63,6 % del día 15/06/2019
  • 6 - 96,1 % del día 14/06/2019
  • 7 - 93,3 % del día 13/06/2019
  • 8 - 86,5 % del día 12/06/2019
  • 9 - 99,9 % del día 11/06/2019
  • 10 - 91,9 % del día 10/06/2019
  • 11 - 72,9 % del día 09/06/2019
  • 12 - 84,4 % del día 08/06/2019
  • 13 - 100 % del día 07/06/2019
  • 14 - 89,4 % del día 06/06/2019
  • 15 - 96,5 % del día 05/06/2019
  • 16 - 99,1 % del día 04/06/2019
  • 17 - 85 % del día 03/06/2019
  • 18 - 69,1 % del día 02/06/2019
  • 19 - 81,3 % del día 01/06/2019
  • 20 - 90,6 % del día 31/05/2019
  • 21 - 80,6 % del día 30/05/2019
  • 22 - 99,3 % del día 29/05/2019
  • 23 - 100 % del día 28/05/2019
  • 24 - 99,3 % del día 27/05/2019
  • 25 - 97,3 % del día 26/05/2019
  • 26 - 89,6 % del día 25/05/2019
  • 27 - 94,7 % del día 24/05/2019
  • 28 - 100 % del día 23/05/2019
  • 29 - 100 % del día 22/05/2019
  • 30 - 97,9 % del día 21/05/2019
  • 31 - 90,8 % del día 20/05/2019
  • 32 - 93,4 % del día 19/05/2019
  • 33 - 88,8 % del día 18/05/2019
  • 34 - 91,7 % del día 17/05/2019
  • 35 - 89,9 % del día 16/05/2019
  • 36 - 89,6 % del día 15/05/2019
  • 37 - 93,4 % del día 14/05/2019
  • 38 - 100 % del día 13/05/2019
  • 39 - 92 % del día 12/05/2019
  • 40 - 79,9 % del día 11/05/2019
  • 41 - 84,5 % del día 10/05/2019
  • 42 - 70,7 % del día 09/05/2019
  • 43 - 100 % del día 08/05/2019
  • 44 - 95,5 % del día 07/05/2019
  • 45 - 95 % del día 06/05/2019
  • 46 - 96,5 % del día 05/05/2019
  • 47 - 100 % del día 04/05/2019
  • 48 - 91,8 % del día 03/05/2019
  • 49 - 92,1 % del día 02/05/2019
  • 50 - 100 % del día 01/05/2019
  • 51 - 100 % del día 30/04/2019
  • 52 - 93,4 % del día 29/04/2019
  • 53 - 98,5 % del día 28/04/2019
  • 54 - 88,6 % del día 27/04/2019
  • 55 - 86,5 % del día 26/04/2019
  • 56 - 99 % del día 25/04/2019
  • 57 - 85,3 % del día 24/04/2019
  • 58 - 98,7 % del día 23/04/2019
  • 59 - 97,2 % del día 22/04/2019
  • 60 - 100 % del día 21/04/2019

||Volver al inicio de la página||


Humedad mínima

  • 1 - 20,7 % del día 19/06/2019
  • 2 - 24,8 % del día 18/06/2019
  • 3 - 22,5 % del día 17/06/2019
  • 4 - 41,2 % del día 16/06/2019
  • 5 - 22,6 % del día 15/06/2019
  • 6 - 35,3 % del día 14/06/2019
  • 7 - 43,8 % del día 13/06/2019
  • 8 - 37 % del día 12/06/2019
  • 9 - 31 % del día 11/06/2019
  • 10 - 19,6 % del día 10/06/2019
  • 11 - 32,2 % del día 09/06/2019
  • 12 - 43,8 % del día 08/06/2019
  • 13 - 27,4 % del día 07/06/2019
  • 14 - 24,7 % del día 06/06/2019
  • 15 - 13,6 % del día 05/06/2019
  • 16 - 20,5 % del día 04/06/2019
  • 17 - 24,2 % del día 03/06/2019
  • 18 - 18,9 % del día 02/06/2019
  • 19 - 20,7 % del día 01/06/2019
  • 20 - 32,9 % del día 31/05/2019
  • 21 - 34,3 % del día 30/05/2019
  • 22 - 39,5 % del día 29/05/2019
  • 23 - 46,5 % del día 28/05/2019
  • 24 - 0 % del día 27/05/2019
  • 25 - 37,2 % del día 26/05/2019
  • 26 - 45,6 % del día 25/05/2019
  • 27 - 36,1 % del día 24/05/2019
  • 28 - 20,2 % del día 23/05/2019
  • 29 - 27,5 % del día 22/05/2019
  • 30 - 46,6 % del día 21/05/2019
  • 31 - 25,7 % del día 20/05/2019
  • 32 - 18 % del día 19/05/2019
  • 33 - 24,9 % del día 18/05/2019
  • 34 - 21,2 % del día 17/05/2019
  • 35 - 43,2 % del día 16/05/2019
  • 36 - 23 % del día 15/05/2019
  • 37 - 26,2 % del día 14/05/2019
  • 38 - 40,9 % del día 13/05/2019
  • 39 - 43,6 % del día 12/05/2019
  • 40 - 26,9 % del día 11/05/2019
  • 41 - 35,1 % del día 10/05/2019
  • 42 - 40 % del día 09/05/2019
  • 43 - 30,3 % del día 08/05/2019
  • 44 - 39,8 % del día 07/05/2019
  • 45 - 52,4 % del día 06/05/2019
  • 46 - 46,5 % del día 05/05/2019
  • 47 - 24,4 % del día 04/05/2019
  • 48 - 40 % del día 03/05/2019
  • 49 - 36 % del día 02/05/2019
  • 50 - 38 % del día 01/05/2019
  • 51 - 50,4 % del día 30/04/2019
  • 52 - 48,4 % del día 29/04/2019
  • 53 - 27,5 % del día 28/04/2019
  • 54 - 35 % del día 27/04/2019
  • 55 - 26,7 % del día 26/04/2019
  • 56 - 34,5 % del día 25/04/2019
  • 57 - 13,4 % del día 24/04/2019
  • 58 - 44,5 % del día 23/04/2019
  • 59 - 54,3 % del día 22/04/2019
  • 60 - 69,2 % del día 21/04/2019

 

|| Temperatura Ambiente|| Velocidad y dirección del viento|| Precipitación|| Radiación Solar Global y PAR|| Temperatura y humedad del suelo|| Presión atmosférica|| Más información|| Volver a la página principal|| Volver al inicio de la página||


Estación Meteorológica de la Universidad de Murcia
http://estacion.um.es/
Informacion actualizada a: 20/06/2019 a las 01:13:00